North Myrtle Beach, SC

12:09 AM EST on December 16, 2019 (GMT -0500)
Grand Strand

Weather History for KCRE - November, 2019

Change the Weather History Date:

Saturday, November 16, 2019

  Actual Average Record
Temperature  
Mean Temperature 48 °F 56 °F  
Max Temperature 50 °F 67 °F 82 °F (1955)
Min Temperature 46 °F 46 °F 27 °F (1969)
Degree Days  
Heating Degree Days 17 9  
Month to date heating degree days 174 117  
Since 1 July heating degree days 186 207  
Cooling Degree Days 0 0  
Month to date cooling degree days 1 12  
Year to date cooling degree days 2380 1895  
Moisture  
Dew Point 44 °F    
Average Humidity 87    
Maximum Humidity 93    
Minimum Humidity 80    
Precipitation  
Precipitation 0.52 in 0.10 in 2.61 in (1957)
Month to date precipitation 3.73 1.61  
Year to date precipitation 50.44 47.12  
Sea Level Pressure  
Sea Level Pressure 29.89 in    
Wind  
Wind Speed 21 mph (NNE)    
Max Wind Speed 31 mph    
Max Gust Speed 46 mph    
Visibility 7 miles    
Events Rain    
T = Trace of Precipitation, MM = Missing Value Source: NWS Daily Summary

Daily Weather History Graph

Daily Weather History Graph

Search for Another Location

Airport or City:

Astronomy

Nov. 16, 2019 Rise Set
Actual Time 6:47 AM EST 5:11 PM EST
Civil Twilight 6:21 AM EST 5:37 PM EST
Nautical Twilight 5:51 AM EST 6:07 PM EST
Astronomical Twilight 5:21 AM EST 6:37 PM EST
Moon 8:47 PM EST 10:34 AM EST
Length of Visible Light 11h 16m
Length of Day
10h 23m
Waning Gibbous, 82% of the Moon is Illuminated
Nov 16
Waning Gibbous
Nov 19
Last Quarter
Nov 26
New
Dec 4
First Quarter
Dec 12
Full

Hourly Weather History & Observations

Time (EST) Temp. Windchill Dew Point Humidity Pressure Visibility Wind Dir Wind Speed Gust Speed Precip Events Conditions
12:43 AM 48.9 °F - 46.9 °F 93% 29.92 in 4.0 mi NNE 17.3 mph 27.6 mph N/A   Overcast
12:53 AM 48.9 °F - 46.9 °F 93% 29.93 in 4.0 mi North 12.7 mph 24.2 mph N/A   Overcast
1:53 AM 48.9 °F - 46.9 °F 93% 29.91 in 5.0 mi NNE 18.4 mph 29.9 mph N/A   Overcast
2:53 AM 48.9 °F - 46.9 °F 93% 29.89 in 4.0 mi North 15.0 mph 25.3 mph N/A   Overcast
3:53 AM 48.9 °F - 46.9 °F 93% 29.88 in 5.0 mi NNE 17.3 mph 27.6 mph N/A   Overcast
4:53 AM 48.9 °F - 46.9 °F 93% 29.88 in 10.0 mi NNE 20.7 mph 28.8 mph N/A   Overcast
6:53 AM 48.0 °F - 46.0 °F 93% 29.92 in 10.0 mi NNE 21.9 mph 29.9 mph N/A   Overcast
7:53 AM 48.9 °F - 45.0 °F 86% 29.95 in 10.0 mi NNE 18.4 mph 26.5 mph N/A   Overcast
8:53 AM 46.9 °F - 44.1 °F 90% 29.96 in 10.0 mi NNE 17.3 mph 31.1 mph 0.00 in Rain Light Rain
9:53 AM 46.9 °F - 44.1 °F 90% 29.94 in 9.0 mi NNE 24.2 mph 34.5 mph 0.00 in   Overcast
10:39 AM 48.0 °F - 43.0 °F 83% 29.94 in 10.0 mi NNE 24.2 mph 34.5 mph 0.00 in   Overcast
10:53 AM 48.9 °F - 43.0 °F 80% 29.93 in 10.0 mi NNE 25.3 mph 39.1 mph 0.00 in   Overcast
12:53 PM 48.9 °F - 43.0 °F 80% 29.88 in 10.0 mi North 19.6 mph 33.4 mph N/A   Overcast
1:53 PM 48.0 °F - 44.1 °F 86% 29.89 in 8.0 mi NNE 17.3 mph 26.5 mph 0.00 in Rain Light Rain
2:11 PM 48.0 °F - 44.1 °F 86% 29.88 in 7.0 mi NNE 17.3 mph 29.9 mph 0.00 in Rain Light Rain
2:33 PM 46.9 °F - 45.0 °F 93% 29.87 in 1.8 mi North 24.2 mph 39.1 mph 0.06 in Rain Heavy Rain
2:53 PM 46.9 °F - 45.0 °F 93% 29.86 in 2.0 mi NNE 19.6 mph 33.4 mph 0.16 in Rain Heavy Rain
3:53 PM 48.0 °F - 45.0 °F 89% 29.86 in 2.0 mi NNE 23.0 mph 38.0 mph 0.23 in Rain Rain
4:06 PM 48.0 °F - 45.0 °F 89% 29.85 in 2.0 mi North 24.2 mph 39.1 mph 0.02 in Rain Rain
4:32 PM 48.0 °F - 44.1 °F 86% 29.86 in 2.0 mi NNE 21.9 mph 39.1 mph 0.02 in   Overcast
4:53 PM 48.0 °F - 44.1 °F 86% 29.86 in 10.0 mi NNE 24.2 mph 42.6 mph 0.02 in   Overcast
5:53 PM 48.0 °F - 44.1 °F 86% 29.86 in 10.0 mi North 27.6 mph 42.6 mph N/A   Overcast
6:53 PM 48.0 °F - 43.0 °F 83% 29.88 in 10.0 mi North 23.0 mph 39.1 mph 0.00 in Rain Light Rain
7:53 PM 46.0 °F 37.4 °F 44.1 °F 93% 29.89 in 2.0 mi North 25.3 mph 40.3 mph 0.08 in Rain Heavy Rain
8:06 PM 46.9 °F - 43.0 °F 86% 29.89 in 6.0 mi NNE 26.5 mph 35.7 mph 0.01 in Rain Light Rain
8:53 PM 46.0 °F 37.8 °F 43.0 °F 89% 29.91 in 10.0 mi North 23.0 mph 35.7 mph 0.01 in   Overcast
9:53 PM 46.9 °F - 43.0 °F 86% 29.91 in 10.0 mi NNE 23.0 mph 31.1 mph N/A   Overcast
10:53 PM 46.0 °F 38.0 °F 42.1 °F 86% 29.88 in 10.0 mi North 21.9 mph 35.7 mph 0.02 in   Overcast
11:53 PM 46.9 °F - 42.1 °F 83% 29.86 in 10.0 mi North 21.9 mph 42.6 mph 0.00 in Rain Light Rain